Meteopurmerend
purmerend
Purmerend - Baaienwijk



My webcam  My webcam


Onweer radar Meer informatie blitzortung!


Regen radar Meer informatie rain snow radar


Bezoek onze andere website:

CandyAppleRed WebdesignWebdesign Purmerend Candy Apple Red

MeteopurmerendBlog

Template documentation
and downloads



Het weer levert geen direct gevaar op.    Er zijn geen waarschuwingen afgegeven.

15 daagse weersverwachting Horten (NO)

  • Overzicht
  • Per uur
  • 15 dagen
  • Extra
  • Vergelijk
  • Kaarten
  • Dagkaart
  • Meer »
  • Info
  • Statistieken
  • Directe link
    Temp 6h Neerslag Wind  
 07:17     19:02    Daglengte: 11:45 Morgen
02:00
13°
 
2
08:00
12°
0.6 mm
4
14:00
14°
0.5 mm
5
20:00
15°
14.0 mm
9
 07:19     18:59    Daglengte: 11:40 Dinsdag 28 Sep
02:00
13°
29.8 mm
8
08:00
14°
40.2 mm
6
14:00
16°
 
4
20:00
13°
 
3
 07:22     18:56    Daglengte: 11:34 Woensdag 29 Sep
02:00
12°
 
1
08:00
11°
27.9 mm
3
14:00
12°
14.1 mm
3
Locatie info
Region: Vestfold
Latitude: 59.4176°N
Longitude: 10.4824°E
16 masl
Postcode: 3181
Temp/Neerslag /Baro Onweer/Dauwpunt
    Temp Baro 1h Neerslag Dauwpunt Wind UV Bewolking  
 07:15     19:05    Daglengte: 11:50 Vandaag
21:00
14°
1019.7 hPa   11.1°
1
Windvlaag: 2.1 m/s
62%
22:00
14°
1019.8 hPa   11.3°
1
Windvlaag: 1 m/s
82%
23:00
13°
1019.9 hPa
11%
11.9°
2
Windvlaag: 1.5 m/s
57%
 07:17     19:02    Daglengte: 11:45 Morgen
00:00
13°
1020.0 hPa
13%
12.0°
2
Windvlaag: 1.3 m/s
57%
01:00
13°
1019.7 hPa
13%
11.7°
3
Windvlaag: 1.1 m/s
65%
02:00
13°
1019.7 hPa
12%
11.1°
2
Windvlaag: 0.1 m/s
52%
03:00
12°
1019.6 hPa
11%
10.8°
2
Windvlaag: 0.2 m/s
76%
04:00
12°
1019.5 hPa
14%
10.4°
2
Windvlaag: -1.3 m/s
83%
05:00
12°
1019.4 hPa
29%
10.2°
3
Windvlaag: -2.2 m/s
86%
06:00
12°
1019.1 hPa
74%
10.3°
3
Windvlaag: -2.1 m/s
86%
07:00
12°
1018.9 hPa 0.4 mm
74%
10.6°
4
Windvlaag: -2.6 m/s
86%
08:00
12°
1018.8 hPa 0.2 mm
72%
10.6°
4
Windvlaag: -2.6 m/s
86%
09:00
12°
1019.0 hPa
15%
10.6°
4
Windvlaag: -1.7 m/s
71%
10:00
13°
1019.0 hPa
15%
10.8°
4
Windvlaag: -1.5 m/s
69%
11:00
13°
1018.9 hPa
49%
10.9°
3
Windvlaag: -2.1 m/s
71%
12:00
13°
1018.5 hPa
16%
11.0°
4
Windvlaag: -2.9 m/s
70%
13:00
13°
1017.9 hPa
23%
11.2°
5
Windvlaag: -3 m/s
69%
14:00
14°
1017.3 hPa 0.5 mm
75%
11.5°
5
Windvlaag: -2.7 m/s
78%
15:00
15°
1016.5 hPa 1.0 mm
82%
11.5°
4
Windvlaag: -2 m/s
86%
16:00
15°
1015.9 hPa 1.7 mm
82%
11.8°
5
Windvlaag: 0.4 m/s
86%
17:00
15°
1015.2 hPa 1.2 mm
82%
12.5°
6
Windvlaag: 3.1 m/s
86%
18:00
15°
1014.5 hPa 2.0 mm
82%
12.5°
7
Windvlaag: 3.4 m/s
86%
19:00
15°
1014.2 hPa 4.4 mm
82%
12.6°
7
Windvlaag: 4.3 m/s
86%
20:00
15°
1013.9 hPa 3.7 mm
82%
12.5°
9
Windvlaag: 6.1 m/s
86%
21:00
15°
1013.7 hPa 3.9 mm
82%
12.5°
9
Windvlaag: 7.3 m/s
86%
22:00
15°
1013.6 hPa 4.8 mm
82%
12.7°
9
Windvlaag: 7.8 m/s
86%
23:00
14°
1013.5 hPa 6.2 mm
82%
11.8°
9
Windvlaag: 8.6 m/s
86%
 07:19     18:59    Daglengte: 11:40 Dinsdag 28 Sep
00:00
14°
1013.5 hPa 6.0 mm
82%
11.6°
9
Windvlaag: 8.5 m/s
86%
01:00
13°
1013.3 hPa 4.2 mm
82%
11.6°
8
Windvlaag: 8.1 m/s
86%
02:00
13°
1013.3 hPa 4.7 mm
82%
11.8°
8
Windvlaag: 7.3 m/s
86%
03:00
13°
1012.9 hPa 5.7 mm
82%
11.9°
9
Windvlaag: 7.1 m/s
86%
04:00
13°
1012.7 hPa 7.1 mm
82%
12.2°
9
Windvlaag: 7 m/s
86%
05:00
13°
1012.6 hPa 8.2 mm
82%
12.5°
9
Windvlaag: 7 m/s
86%
06:00
14°
1012.9 hPa 9.6 mm
82%
12.3°
8
Windvlaag: 9 m/s
86%
07:00
14°
1013.2 hPa 9.5 mm
82%
12.4°
7
Windvlaag: 9.3 m/s
86%
08:00
14°
1014.0 hPa
70%
12.6°
6
Windvlaag: 9.5 m/s
86%
09:00
14°
1014.8 hPa
21%
12.5°
5
Windvlaag: 9.7 m/s
84%
10:00
14°
1015.6 hPa
20%
12.5°
5
Windvlaag: 8.8 m/s
43%
11:00
14°
1016.4 hPa
14%
11.6°
4
Windvlaag: 7.1 m/s
55%
12:00
15°
1017.2 hPa
14%
10.1°
4
Windvlaag: 4.6 m/s
11%
13:00
15°
1018.0 hPa
14%
7.3°
4
Windvlaag: 4.7 m/s
9%
14:00
16°
1018.5 hPa
15%
6.1°
4
Windvlaag: 4.9 m/s
5%
15:00
16°
1018.8 hPa
19%
5.8°
4
Windvlaag: 5.5 m/s
2%
16:00
16°
1019.3 hPa
17%
6.2°
4
Windvlaag: 5.5 m/s
2%
17:00
16°
1019.5 hPa
21%
6.1°
4
Windvlaag: 5.2 m/s
1%
18:00
15°
1020.1 hPa
21%
8.2°
4
Windvlaag: 5.6 m/s
1%
19:00
14°
1020.7 hPa
21%
10.0°
4
Windvlaag: 6.3 m/s
2%
20:00
13°
1021.3 hPa
21%
11.1°
3
Windvlaag: 5.8 m/s
8%
21:00
13°
1021.7 hPa
21%
11.1°
3
Windvlaag: 5.1 m/s
16%
22:00
13°
1022.2 hPa
21%
11.0°
3
Windvlaag: 4.4 m/s
25%
23:00
13°
1022.4 hPa
21%
11.1°
2
Windvlaag: 3.3 m/s
40%
 07:22     18:56    Daglengte: 11:34 Woensdag 29 Sep
00:00
13°
1022.8 hPa
22%
10.5°
2
Windvlaag: 0.6 m/s
45%
01:00
12°
1022.8 hPa
29%
9.8°
1
Windvlaag: -1.3 m/s
57%
02:00
12°
1022.8 hPa
75%
10.1°
1
Windvlaag: -1.6 m/s
63%
03:00
12°
1022.8 hPa
77%
10.9°
2
Windvlaag: -0.8 m/s
88%
04:00
12°
1022.6 hPa 14.0 mm
69%
11.3°
3
Windvlaag: 0.3 m/s
92%
05:00
12°
1022.4 hPa
29%
11.8°
3
Windvlaag: -0.8 m/s
83%
06:00
12°
1022.2 hPa 13.9 mm
22%
11.8°
3
Windvlaag: -0.9 m/s
91%
07:00
11°
1022.2 hPa
69%
11.2°
3
Windvlaag: -0.8 m/s
90%
08:00
11°
1022.1 hPa
22%
10.9°
3
Windvlaag: -1.4 m/s
94%
09:00
11°
1021.8 hPa
21%
10.5°
3
Windvlaag: -2 m/s
92%
10:00
11°
1021.4 hPa
21%
10.5°
4
Windvlaag: -2.7 m/s
82%
11:00
11°
1020.9 hPa
70%
10.1°
4
Windvlaag: -3.1 m/s
94%
12:00
11°
1020.4 hPa
89%
10.1°
5
Windvlaag: -3.4 m/s
92%
13:00
12°
1019.9 hPa
51%
10.1°
4
Windvlaag: -3.5 m/s
99%
14:00
12°
1019.4 hPa 14.1 mm
92%
10.8°
3
Windvlaag: -3.6 m/s
100%
15:00
13°
1018.5 hPa 14.3 mm
97%
11.4°
3
Windvlaag: 2.2 m/s
94%
16:00
13°
1018.1 hPa 14.2 mm
100%
11.8°
2
Windvlaag: 1.7 m/s
70%
17:00
13°
1017.7 hPa 14.3 mm
100%
12.3°
2
Windvlaag: 1.6 m/s
56%
18:00
13°
1017.5 hPa 14.2 mm
99%
12.5°
3
Windvlaag: 2 m/s
92%
19:00
13°
1017.4 hPa 14.3 mm
100%
12.1°
3
Windvlaag: 1 m/s
77%
20:00
13°
1017.2 hPa 14.3 mm
99%
12.3°
3
Windvlaag: 1.6 m/s
74%
Temp/Neerslag /Baro Onweer/Dauwpunt
    Temp Baro Neerslag Dauwpunt Wind Bewolking  
 07:15     19:05    Daglengte: 11:50 Vandaag
23:00
13°
1019.9 hPa   11.9°
2
57%
 07:17     19:02    Daglengte: 11:45 Morgen
02:00
13°
1019.7 hPa   11.1°
2
52%
05:00
12°
1019.4 hPa   10.2°
3
86%
08:00
12°
1018.8 hPa 0.6 mm 10.6°
4
86%
11:00
13°
1018.9 hPa   10.9°
3
71%
14:00
14°
1017.3 hPa 0.5 mm 11.5°
5
78%
17:00
15°
1015.2 hPa 3.8 mm 12.5°
6
86%
20:00
15°
1013.9 hPa 10.2 mm 12.5°
9
86%
23:00
14°
1013.5 hPa 14.9 mm 11.8°
9
86%
 07:19     18:59    Daglengte: 11:40 Dinsdag 28 Sep
02:00
13°
1013.3 hPa 14.9 mm 11.8°
8
86%
05:00
13°
1012.6 hPa 21.0 mm 12.5°
9
86%
08:00
14°
1014.0 hPa 19.2 mm 12.6°
6
86%
11:00
14°
1016.4 hPa   11.6°
4
55%
14:00
16°
1018.5 hPa   6.1°
4
5%
17:00
16°
1019.5 hPa   6.1°
4
1%
20:00
13°
1021.3 hPa   11.1°
3
8%
23:00
13°
1022.4 hPa   11.1°
2
40%
 07:22     18:56    Daglengte: 11:34 Woensdag 29 Sep
02:00
12°
1022.8 hPa   10.1°
1
63%
05:00
12°
1022.4 hPa 14.0 mm 11.8°
3
83%
08:00
11°
1022.1 hPa 13.9 mm 10.9°
3
94%
11:00
11°
1020.9 hPa   10.1°
4
94%
14:00
12°
1019.4 hPa 14.1 mm 10.8°
3
100%
17:00
13°
1017.7 hPa 42.7 mm 12.3°
2
56%
20:00
13°
1017.2 hPa 42.7 mm 12.3°
3
74%
23:00
11°
1020.7 hPa 37.0 mm 9.6°
3
1%
 07:24     18:53    Daglengte: 11:29 Donderdag 30 Sep
02:00
10°
1019.8 hPa 37.6 mm 9.7°
4
1%
05:00
11°
1018.3 hPa 42.5 mm 10.4°
3
1%
08:00
11°
1017.1 hPa 49.3 mm 9.7°
1
1%
11:00
11°
1016.7 hPa 54.3 mm 9.2°
2
1%
14:00
11°
1016.5 hPa 55.8 mm 7.5°
3
1%
17:00
11°
1016.3 hPa 56.9 mm 7.4°
4
1%
20:00
10°
1017.2 hPa 57.0 mm 7.5°
4
1%
23:00
10°
Voelt als: 7.7°
1017.9 hPa 57.1 mm 7.4°
4
0%
 07:26     18:50    Daglengte: 11:24 Vrijdag 01 Okt
02:00
10°
Voelt als: 7.5°
1018.6 hPa 57.6 mm 8.1°
5
1%
05:00
10°
1017.9 hPa 59.4 mm 8.9°
8
1%
08:00
11°
1018.0 hPa 60.7 mm 9.0°
8
1%
11:00
11°
1018.0 hPa 62.1 mm 9.7°
8
1%
14:00
11°
1017.4 hPa 64.6 mm 9.2°
10
1%
17:00
12°
1016.1 hPa 69.2 mm 9.4°
10
1%
20:00
11°
1015.7 hPa 73.0 mm 9.0°
10
1%
23:00
11°
1014.7 hPa 77.5 mm 9.8°
8
1%
 07:29     18:47    Daglengte: 11:18 Zaterdag 02 Okt
02:00
11°
1013.1 hPa 80.6 mm 10.0°
8
1%
05:00
11°
1011.4 hPa 85.2 mm 10.2°
7
1%
08:00
12°
1010.1 hPa 89.7 mm 11.0°
6
1%
11:00
12°
1010.2 hPa 92.3 mm 11.1°
5
1%
14:00
12°
1010.3 hPa 94.8 mm 10.1°
3
1%
17:00
12°
1010.6 hPa 95.0 mm 8.8°
4
1%
20:00
10°
1011.1 hPa 95.0 mm 7.5°
4
1%
23:00
Voelt als: 7.3°
1011.8 hPa 95.0 mm 6.4°
4
0%
 07:31     18:44    Daglengte: 11:13 Zondag 03 Okt
02:00
Voelt als: 7.1°
1012.1 hPa 95.0 mm 6.5°
4
0%
05:00
Voelt als: 5.8°
1011.9 hPa 95.0 mm 6.0°
5
0%
08:00
Voelt als: 6.6°
1012.0 hPa 95.1 mm 6.5°
4
1%
11:00
11°
1011.1 hPa 95.8 mm 6.8°
9
1%
14:00
10°
Voelt als: 5.8°
1009.4 hPa 98.9 mm 7.9°
11
1%
17:00
11°
1005.9 hPa 104.9 mm 8.8°
12
1%
20:00
12°
1002.2 hPa 214.9 mm 9.7°
13
1%
 07:33     18:41    Daglengte: 11:08 Maandag 04 Okt
02:00
13°
993.3 hPa 254.9 mm 11.9°
12
1%
08:00
11°
993.5 hPa 268.0 mm 8.1°
8
1%
14:00
12°
994.1 hPa 268.2 mm 7.7°
6
1%
20:00
10°
991.2 hPa 268.5 mm 7.2°
5
1%
 07:36     18:38    Daglengte: 11:02 Dinsdag 05 Okt
02:00
10°
Voelt als: 7.7°
986.5 hPa 274.0 mm 7.6°
3
1%
08:00
Voelt als: 6.1°
984.6 hPa 286.1 mm 5.7°
4
1%
14:00
11°
984.8 hPa 287.8 mm 6.1°
5
1%
20:00
Voelt als: 8.1°
983.0 hPa 290.0 mm 5.7°
2
1%
 07:38     18:35    Daglengte: 10:57 Woensdag 06 Okt
02:00
Voelt als: 4.8°
985.9 hPa 291.0 mm 4.6°
3
1%
08:00
Voelt als: 5.3°
988.9 hPa 291.0 mm 3.7°
2
1%
14:00
11°
1006.9 hPa 3.7 mm 8.3°
3
81%
20:00
10°
1007.6 hPa 1.9 mm 8.3°
3
77%
 07:40     18:32    Daglengte: 10:52 Donderdag 07 Okt
02:00
Voelt als: 8.1°
1008.8 hPa 0.3 mm 7.2°
2
57%
08:00
Voelt als: 8.6°
1009.4 hPa 0.5 mm 6.9°
1
64%
14:00
11°
1009.7 hPa 1.2 mm 8.2°
3
68%
20:00
10°
1010.2 hPa 1.3 mm 8.3°
2
72%
 07:43     18:29    Daglengte: 10:46 Vrijdag 08 Okt
02:00
10°
Voelt als: 8.6°
1011.2 hPa 1.1 mm 8.0°
2
72%
08:00
Voelt als: 8.4°
1011.2 hPa 0.8 mm 7.4°
1
67%
14:00
11°
1011.2 hPa 1.6 mm 8.1°
2
69%
20:00
10°
Voelt als: 9.4°
1011.5 hPa 1.3 mm 7.9°
2
65%
 07:45     18:26    Daglengte: 10:41 Zaterdag 09 Okt
02:00
Voelt als: 9.1°
1012.4 hPa 0.7 mm 7.2°
1
68%
08:00
Voelt als: 8.1°
1013.0 hPa 0.4 mm 6.0°
1
68%
14:00
11°
1013.8 hPa 0.5 mm 6.6°
2
61%
20:00
10°
Voelt als: 9.0°
1014.3 hPa 0.7 mm 7.0°
2
64%
 07:47     18:23    Daglengte: 10:36 Zondag 10 Okt
02:00
1014.8 hPa 0.4 mm 6.6°
1
65%
08:00
1014.0 hPa 0.7 mm 6.3°
1
70%
14:00
10°
1013.5 hPa 1.3 mm 6.9°
2
79%
20:00
10°
Voelt als: 8.6°
1013.1 hPa 0.3 mm 7.2°
2
76%
 07:50     18:21    Daglengte: 10:31 Maandag 11 Okt
02:00
Voelt als: 8.2°
1013.3 hPa 0.1 mm 6.6°
1
67%
08:00
1013.5 hPa 0.2 mm 6.1°
1
57%
14:00
10°
1013.9 hPa 0.2 mm 6.5°
1
63%
20:00
Voelt als: 8.9°
1013.7 hPa 0.6 mm 6.5°
1
70%
  CAPE Lifted Index Hail Supercell Tornado SRH 3km CL BTM PRES CL TOP PRES Swiss DWD icon SMHI TS
 07:15     19:05    Daglengte: 11:50 Vandaag
21:00 0 J/kg 7.7 K 0 % 0 % 0 % 0 m²/s² 0 0 11.9 3
22:00 0 J/kg 7.7 K 0 % 0 % 0 % 0 m²/s² 0 0 10.85 3
23:00 0 J/kg 8.3 K 0 % 0 % 0 % 0 m²/s² 0 0 9.89 3
 07:17     19:02    Daglengte: 11:45 Morgen
00:00 0 J/kg 7.3 K 0 % 0 % 0 % 0 m²/s² 0 0 8.44 2
01:00 0 J/kg 5.2 K 0 % 0 % 0 % 0 m²/s² 0 0 6.55 3
02:00 0 J/kg 4.7 K 0 % 0 % 0 % 0 m²/s² 0 0 6.47 3
03:00 0 J/kg 4.8 K 0 % 0 % 0 % 0 m²/s² 0 0 6.63 3
04:00 0 J/kg 5.0 K 0 % 0 % 0 % 0 m²/s² 0 0 7.01 3
05:00 0 J/kg 5.2 K 0 % 0 % 0 % 0 m²/s² 0 0 7.33 3
06:00 0 J/kg 5.2 K 0 % 0 % 0 % 0 m²/s² 0 0 8.08 61
07:00 0 J/kg 5.1 K 0 % 0 % 0 % 0 m²/s² 0 0 8.16 61
08:00 0 J/kg 5.1 K 0 % 0 % 0 % 0 m²/s² 0 0 7.83 61
09:00 0 J/kg 5.0 K 0 % 0 % 0 % 0 m²/s² 0 0 6.05 3
10:00 0 J/kg 4.4 K 0 % 0 % 0 % 0 m²/s² 0 0 4.49 3
11:00 0 J/kg 3.7 K 0 % 0 % 0 % 0 m²/s² 0 0 3.7 3
12:00 0 J/kg 2.9 K 0 % 0 % 0 % 0 m²/s² 0 0 3.65 3
13:00 0 J/kg 1.7 K 0 % 0 % 0 % 0 m²/s² 0 0 2.09 3
14:00 0 J/kg 1.2 K 0 % 0 % 0 % 0 m²/s² 0 0 1.2 3
15:00 0 J/kg 1.3 K 0 % 0 % 0 % 0 m²/s² 0 0 1.51 80
16:00 0 J/kg 1.8 K 0 % 0 % 0 % 0 m²/s² 0 0 1.98 61
17:00 0 J/kg 2.0 K 0 % 0 % 0 % 0 m²/s² 0 0 2.03 80
18:00 0 J/kg 2.0 K 0 % 0 % 0 % 0 m²/s² 0 0 2 61
19:00 0 J/kg 2.5 K 0 % 0 % 0 % 0 m²/s² 0 0 2.53 63
20:00 0 J/kg 3.7 K 0 % 0 % 0 % 0 m²/s² 0 0 3.7 63
21:00 0 J/kg 2.4 K 0 % 0 % 0 % 0 m²/s² 0 0 2.43 61
22:00 0 J/kg 2.0 K 0 % 0 % 0 % 0 m²/s² 0 0 2.03 63
23:00 0 J/kg 1.7 K 0 % 0 % 0 % 0 m²/s² 0 0 1.79 63
 07:19     18:59    Daglengte: 11:40 Dinsdag 28 Sep
00:00 0 J/kg 1.4 K 0 % 0 % 0 % 0 m²/s² 0 0 1.49 63
01:00 1 J/kg 1.5 K 0 % 0 % 0 % 0 m²/s² 0 0 1.53 61
02:00 3 J/kg 3.6 K 0 % 0 % 0 % 0 m²/s² 0 0 3.6 80
03:00 2 J/kg 2.8 K 0 % 0 % 0 % 0 m²/s² 0 0 2.83 80
04:00 0 J/kg 4.4 K 0 % 0 % 0 % 0 m²/s² 0 0 4.43 80
05:00 1 J/kg 4.1 K 0 % 0 % 0 % 0 m²/s² 0 0 4.19 61
06:00 1 J/kg 4.5 K 0 % 0 % 0 % 0 m²/s² 0 0 4.71 61
07:00 17 J/kg 5.3 K 0 % 0 % 0 % 0 m²/s² 0 0 5.39 61
08:00 22 J/kg 5.8 K 0 % 0 % 0 % 0 m²/s² 0 0 6.67 3
09:00 20 J/kg 5.6 K 0 % 0 % 0 % 0 m²/s² 0 0 12.59 3
10:00 35 J/kg 5.1 K 0 % 0 % 0 % 0 m²/s² 0 0 13.8 2
11:00 37 J/kg 4.4 K 0 % 0 % 0 % 0 m²/s² 0 0 13.07 2
12:00 20 J/kg 4.3 K 0 % 0 % 0 % 0 m²/s² 0 0 12.97 0
13:00 59 J/kg 3.9 K 0 % 0 % 0 % 0 m²/s² 0 0 12.93 0
14:00 22 J/kg 4.3 K 0 % 0 % 0 % 0 m²/s² 0 0 13.33 1
15:00 0 J/kg 6.4 K 0 % 0 % 0 % 0 m²/s² 0 0 15.43 1
16:00 0 J/kg 7.8 K 0 % 0 % 0 % 0 m²/s² 0 0 16.44 1
17:00 0 J/kg 7.7 K 0 % 0 % 0 % 0 m²/s² 0 0 16.01 1
18:00 0 J/kg 7.2 K 0 % 0 % 0 % 0 m²/s² 0 0 14.61 0
19:00 0 J/kg 6.4 K 0 % 0 % 0 % 0 m²/s² 0 0 13.54 0
20:00 0 J/kg 6.5 K 0 % 0 % 0 % 0 m²/s² 0 0 13.4 0
21:00 0 J/kg 6.9 K 0 % 0 % 0 % 0 m²/s² 0 0 13.56 0
22:00 0 J/kg 7.4 K 0 % 0 % 0 % 0 m²/s² 0 0 13.85 1
23:00 0 J/kg 7.8 K 0 % 0 % 0 % 0 m²/s² 0 0 14.07 1
 07:22     18:56    Daglengte: 11:34 Woensdag 29 Sep
00:00 0 J/kg 7.9 K 0 % 0 % 0 % 0 m²/s² 0 0 13.81 3
01:00 0 J/kg 7.7 K 0 % 0 % 0 % 0 m²/s² 0 0 13.61 2
02:00 0 J/kg 8.0 K 0 % 0 % 0 % 0 m²/s² 0 0 13.4 3
03:00 0 J/kg 7.1 K 0 % 0 % 0 % 0 m²/s² 0 0 12.68 3
04:00 0 J/kg 6.5 K 0 % 0 % 0 % 0 m²/s² 0 0 11.75 3
05:00 0 J/kg 6.7 K 0 % 0 % 0 % 0 m²/s² 0 0 11.83 3
06:00 1 J/kg 6.5 K 0 % 0 % 0 % 0 m²/s² 0 0 12.2 3
07:00 1 J/kg 6.9 K 0 % 0 % 0 % 0 m²/s² 0 0 11.85 3
08:00 1 J/kg 7.1 K 0 % 0 % 0 % 0 m²/s² 0 0 9.89 3
09:00 2 J/kg 7.6 K 0 % 0 % 0 % 0 m²/s² 0 0 9.82 3
10:00 2 J/kg 7.4 K 0 % 0 % 0 % 0 m²/s² 0 0 11.66 3
11:00 2 J/kg 7.2 K 0 % 0 % 0 % 0 m²/s² 0 0 11.25 3
12:00 2 J/kg 5.4 K 0 % 0 % 0 % 0 m²/s² 0 0 9.9 3
13:00 0 J/kg 4.1 K 0 % 0 % 0 % 0 m²/s² 0 0 7.88 3
14:00 0 J/kg 3.4 K 0 % 0 % 0 % 0 m²/s² 0 0 7.81 80
15:00 0 J/kg 3.0 K 0 % 0 % 0 % 0 m²/s² 0 0 7.62 80
16:00 1 J/kg 3.1 K 0 % 0 % 0 % 0 m²/s² 0 0 7.27 80
17:00 8 J/kg 2.9 K 0 % 0 % 0 % 0 m²/s² 0 0 6.68 80
18:00 18 J/kg 2.8 K 0 % 0 % 0 % 0 m²/s² 0 0 5.47 3
19:00 2 J/kg 2.9 K 0 % 0 % 0 % 0 m²/s² 0 0 6.32 80
20:00 3 J/kg 2.5 K 0 % 0 % 0 % 0 m²/s² 0 0 5.92 80
Temp Baro Wind Neerslag
  EWN Forecast EWN WRFDA DWD ICON FMI HIRLAM MET Norway GFS
 07:15     19:05    Daglengte: 11:50 Vandaag
23:00 13.5° 1019.9 hPa 2.0 m/s 0.0 mm 10.7° 1018.6 hPa 2.6 m/s 0.0 mm 13.8° 1019.5 hPa 1.2 m/s 0.0 mm 13.8° 1020.4 hPa 1.9 m/s 0.0 mm 12.1° 1020.4 hPa 1.0 m/s
 07:17     19:02    Daglengte: 11:45 Morgen
02:00 12.7° 1019.7 hPa 2.4 m/s 0.0 mm 11.6° 1018.2 hPa 1.8 m/s 0.0 mm 13.5° 1019.8 hPa 1.6 m/s 0.0 mm 12.1° 1019.9 hPa 2.6 m/s 0.0 mm 11.4° 1020.4 hPa 1.9 m/s
05:00 12.1° 1019.4 hPa 2.8 m/s 0.0 mm 11.9° 1018.3 hPa 2.2 m/s 0.1 mm 13.1° 1019.5 hPa 2.3 m/s 0.0 mm 11.9° 1019.2 hPa 3.5 m/s 0.0 mm 11.8° 1020.1 hPa 2.0 m/s
08:00 12.3° 1018.8 hPa 3.5 m/s 0.6 mm 11.6° 1017.8 hPa 2.7 m/s 0.5 mm 12.8° 1019.0 hPa 3.1 m/s 1.2 mm 12.5° 1018.7 hPa 4.7 m/s 0.0 mm 11.8° 1019.9 hPa 2.9 m/s
11:00 12.7° 1018.9 hPa 3.5 m/s 0.0 mm 12.7° 1017.9 hPa 3.0 m/s 1.3 mm 13.0° 1019.1 hPa 3.5 m/s 0.0 mm 12.8° 1018.5 hPa 4.4 m/s 0.0 mm 12.8° 1019.9 hPa 3.1 m/s
14:00 14.0° 1017.3 hPa 4.9 m/s 0.5 mm 15.5° 1015.9 hPa 4.0 m/s 3.3 mm 14.2° 1017.5 hPa 4.0 m/s 0.2 mm 14.0° 1016.6 hPa 7.0 m/s 0.0 mm 12.9° 1018.6 hPa 3.7 m/s
17:00 14.7° 1015.2 hPa 5.8 m/s 3.8 mm 16.3° 1014.4 hPa 6.0 m/s 5.1 mm 14.7° 1015.2 hPa 5.6 m/s 4.1 mm 14.8° 1014.8 hPa 7.2 m/s 0.0 mm 14.2° 1016.4 hPa 3.1 m/s
20:00 15.0° 1013.9 hPa 8.8 m/s 10.2 mm 15.9° 1014.0 hPa 5.0 m/s 12.1 mm 14.9° 1013.8 hPa 9.6 m/s 12.4 mm 15.2° 1013.3 hPa 9.1 m/s 0.0 mm 14.9° 1015.3 hPa 7.7 m/s
23:00 14.2° 1013.5 hPa 8.9 m/s 14.9 mm 14.1° 1014.1 hPa 5.3 m/s 32.5 mm 14.2° 1013.3 hPa 8.9 m/s 8.0 mm 14.6° 1013.5 hPa 9.1 m/s 0.0 mm 15.0° 1015.1 hPa 8.7 m/s
 07:19     18:59    Daglengte: 11:40 Dinsdag 28 Sep
02:00 13.3° 1013.3 hPa 8.4 m/s 14.9 mm 12.1° 1014.0 hPa 6.5 m/s 49.5 mm 13.4° 1013.1 hPa 8.6 m/s 5.3 mm 13.9° 1013.2 hPa 9.1 m/s 0.0 mm 13.2° 1015.0 hPa 8.5 m/s
05:00 13.5° 1012.6 hPa 8.7 m/s 21.0 mm 12.4° 1012.3 hPa 5.5 m/s 91.4 mm 13.5° 1012.7 hPa 8.4 m/s 3.0 mm 14.4° 1013.2 hPa 10.3 m/s 0.0 mm 12.6° 1014.5 hPa 6.9 m/s
08:00 14.1° 1014.0 hPa 6.1 m/s 19.2 mm 12.9° 1014.0 hPa 3.0 m/s 120.1 mm 14.3° 1014.0 hPa 3.8 m/s 3.1 mm 14.0° 1015.1 hPa 6.2 m/s 0.0 mm 13.2° 1016.0 hPa 3.7 m/s
11:00 14.2° 1016.4 hPa 4.3 m/s 0.0 mm 14.4° 1016.1 hPa 3.0 m/s 124.2 mm 14.3° 1016.4 hPa 3.0 m/s 0.0 mm 14.0° 1017.6 hPa 4.8 m/s 0.0 mm 13.6° 1018.6 hPa 3.9 m/s
14:00 16.1° 1018.5 hPa 3.9 m/s 0.0 mm 16.1° 1017.7 hPa 2.3 m/s 124.4 mm 16.2° 1018.5 hPa 2.1 m/s 0.0 mm 16.3° 1019.3 hPa 4.3 m/s 0.0 mm 13.9° 1019.9 hPa 3.7 m/s
17:00 16.2° 1019.5 hPa 3.9 m/s 0.0 mm 16.7° 1018.6 hPa 2.8 m/s 124.4 mm 16.3° 1019.9 hPa 3.5 m/s 0.0 mm 13.9° 1020.9 hPa 3.3 m/s
20:00 13.4° 1021.3 hPa 3.4 m/s 0.0 mm 11.7° 1020.3 hPa 3.2 m/s 124.4 mm 13.8° 1021.7 hPa 3.1 m/s 0.0 mm 12.0° 1022.2 hPa 2.1 m/s
23:00 12.9° 1022.4 hPa 2.1 m/s 0.0 mm 10.0° 1021.6 hPa 2.2 m/s 124.4 mm 13.5° 1022.8 hPa 2.4 m/s 0.0 mm 11.2° 1023.4 hPa 1.1 m/s
 07:22     18:56    Daglengte: 11:34 Woensdag 29 Sep
02:00 12.0° 1022.8 hPa 1.4 m/s 0.0 mm 9.7° 1021.5 hPa 1.3 m/s 124.4 mm 13.3° 1023.2 hPa 0.7 m/s 0.1 mm 10.9° 1023.4 hPa 0.9 m/s
05:00 11.8° 1022.4 hPa 2.8 m/s 14.0 mm 8.8° 1021.4 hPa 2.3 m/s 124.4 mm 12.5° 1022.7 hPa 2.2 m/s 0.1 mm 10.3° 1023.2 hPa 1.4 m/s
08:00 10.9° 1022.1 hPa 3.3 m/s 13.9 mm 9.0° 1021.5 hPa 2.7 m/s 124.4 mm 11.3° 1022.2 hPa 3.4 m/s 0.0 mm 10.1° 1023.1 hPa 2.0 m/s
11:00 11.0° 1020.9 hPa 4.3 m/s 0.0 mm 10.3° 1020.1 hPa 3.4 m/s 124.4 mm 12.0° 1020.7 hPa 4.5 m/s 0.0 mm 11.5° 1022.5 hPa 2.3 m/s
14:00 11.9° 1019.4 hPa 3.1 m/s 14.1 mm 11.4° 1018.8 hPa 2.7 m/s 124.8 mm 12.8° 1019.1 hPa 2.8 m/s 0.3 mm 13.2° 1021.5 hPa 1.8 m/s
17:00 13.4° 1017.7 hPa 2.2 m/s 42.7 mm 12.4° 1017.9 hPa 0.6 m/s 125.9 mm 13.6° 1017.6 hPa 2.6 m/s 1.1 mm 13.8° 1020.4 hPa 1.8 m/s
20:00 12.7° 1017.2 hPa 3.4 m/s 42.7 mm 11.2° 1017.6 hPa 1.4 m/s 126.2 mm 13.1° 1017.1 hPa 3.9 m/s 0.9 mm 11.9° 1020.5 hPa 2.5 m/s
23:00 10.5° 1020.7 hPa 2.7 m/s 37.0 mm 10.5° 1020.7 hPa 2.7 m/s 37.0 mm
 07:24     18:53    Daglengte: 11:29 Donderdag 30 Sep
02:00 10.3° 1019.8 hPa 3.7 m/s 37.6 mm 10.3° 1019.8 hPa 3.7 m/s 37.6 mm
05:00 11.3° 1018.3 hPa 2.6 m/s 42.5 mm 11.3° 1018.3 hPa 2.6 m/s 42.5 mm
08:00 10.8° 1017.1 hPa 1.0 m/s 49.3 mm 10.8° 1017.1 hPa 1.0 m/s 49.3 mm
11:00 11.0° 1016.7 hPa 2.2 m/s 54.3 mm 11.0° 1016.7 hPa 2.2 m/s 54.3 mm
14:00 11.2° 1016.5 hPa 2.6 m/s 55.8 mm 11.2° 1016.5 hPa 2.6 m/s 55.8 mm
17:00 10.9° 1016.3 hPa 3.8 m/s 56.9 mm 10.9° 1016.3 hPa 3.8 m/s 56.9 mm
20:00 10.2° 1017.2 hPa 3.8 m/s 57.0 mm 10.2° 1017.2 hPa 3.8 m/s 57.0 mm
23:00 9.7° 1017.9 hPa 3.8 m/s 57.1 mm 9.7° 1017.9 hPa 3.8 m/s 57.1 mm
 07:26     18:50    Daglengte: 11:24 Vrijdag 01 Okt
02:00 9.8° 1018.6 hPa 4.5 m/s 57.6 mm 9.8° 1018.6 hPa 4.5 m/s 57.6 mm
05:00 10.3° 1017.9 hPa 8.0 m/s 59.4 mm 10.3° 1017.9 hPa 8.0 m/s 59.4 mm
08:00 10.5° 1018.0 hPa 8.0 m/s 60.7 mm 10.5° 1018.0 hPa 8.0 m/s 60.7 mm
11:00 11.1° 1018.0 hPa 8.5 m/s 62.1 mm 11.1° 1018.0 hPa 8.5 m/s 62.1 mm
14:00 11.5° 1017.4 hPa 9.6 m/s 64.6 mm 11.5° 1017.4 hPa 9.6 m/s 64.6 mm
17:00 11.7° 1016.1 hPa 9.9 m/s 69.2 mm 11.7° 1016.1 hPa 9.9 m/s 69.2 mm
20:00 11.3° 1015.7 hPa 9.7 m/s 73.0 mm 11.3° 1015.7 hPa 9.7 m/s 73.0 mm
23:00 11.2° 1014.7 hPa 8.4 m/s 77.5 mm 11.2° 1014.7 hPa 8.4 m/s 77.5 mm
 07:29     18:47    Daglengte: 11:18 Zaterdag 02 Okt
02:00 11.5° 1013.1 hPa 7.8 m/s 80.6 mm 11.5° 1013.1 hPa 7.8 m/s 80.6 mm
05:00 10.8° 1011.4 hPa 7.4 m/s 85.2 mm 10.8° 1011.4 hPa 7.4 m/s 85.2 mm
08:00 11.6° 1010.1 hPa 6.1 m/s 89.7 mm 11.6° 1010.1 hPa 6.1 m/s 89.7 mm
11:00 11.9° 1010.2 hPa 5.0 m/s 92.3 mm 11.9° 1010.2 hPa 5.0 m/s 92.3 mm
14:00 12.0° 1010.3 hPa 2.7 m/s 94.8 mm 12.0° 1010.3 hPa 2.7 m/s 94.8 mm
17:00 11.9° 1010.6 hPa 3.6 m/s 95.0 mm 11.9° 1010.6 hPa 3.6 m/s 95.0 mm
20:00 10.4° 1011.1 hPa 3.6 m/s 95.0 mm 10.4° 1011.1 hPa 3.7 m/s 95.0 mm
23:00 9.3° 1011.8 hPa 3.7 m/s 95.0 mm 9.3° 1011.8 hPa 3.7 m/s 95.0 mm
 07:31     18:44    Daglengte: 11:13 Zondag 03 Okt
02:00 9.0° 1012.1 hPa 3.5 m/s 95.0 mm 9.0° 1012.1 hPa 3.5 m/s 95.0 mm
05:00 8.6° 1011.9 hPa 4.9 m/s 95.0 mm 8.6° 1011.9 hPa 4.9 m/s 95.0 mm
08:00 8.9° 1012.0 hPa 3.9 m/s 95.1 mm 8.9° 1012.0 hPa 3.9 m/s 95.1 mm
11:00 10.8° 1011.1 hPa 8.6 m/s 95.8 mm 10.8° 1011.1 hPa 8.6 m/s 95.8 mm
14:00 9.8° 1009.4 hPa 10.7 m/s 98.9 mm 9.8° 1009.4 hPa 10.7 m/s 98.9 mm
17:00 11.0° 1005.9 hPa 11.8 m/s 104.9 mm 11.0° 1005.9 hPa 11.8 m/s 104.9 mm
20:00 11.6° 1002.2 hPa 12.9 m/s 110.0 mm 11.6° 1002.2 hPa 12.9 m/s 110.0 mm
 07:33     18:41    Daglengte: 11:08 Maandag 04 Okt
02:00 12.9° 993.3 hPa 11.6 m/s 132.5 mm 12.9° 993.3 hPa 11.6 m/s 132.5 mm
08:00 10.7° 993.5 hPa 7.7 m/s 134.1 mm 10.7° 993.5 hPa 7.7 m/s 134.1 mm
14:00 12.1° 994.1 hPa 6.2 m/s 134.1 mm 12.1° 994.1 hPa 6.2 m/s 134.1 mm
20:00 10.3° 991.2 hPa 4.6 m/s 134.2 mm 10.3° 991.2 hPa 4.6 m/s 134.2 mm
 07:36     18:38    Daglengte: 11:02 Dinsdag 05 Okt
02:00 9.5° 986.5 hPa 3.4 m/s 138.4 mm 9.5° 986.5 hPa 3.4 m/s 138.4 mm
08:00 8.3° 984.6 hPa 3.6 m/s 143.8 mm 8.3° 984.6 hPa 3.6 m/s 143.8 mm
14:00 10.9° 984.8 hPa 5.3 m/s 143.9 mm 10.9° 984.8 hPa 5.3 m/s 143.9 mm
20:00 8.7° 983.0 hPa 1.6 m/s 145.5 mm 8.7° 983.0 hPa 1.6 m/s 145.5 mm
 07:38     18:35    Daglengte: 10:57 Woensdag 06 Okt
02:00 7.0° 985.9 hPa 3.2 m/s 145.5 mm 7.0° 985.9 hPa 3.2 m/s 145.5 mm
08:00 6.4° 988.9 hPa 1.7 m/s 145.5 mm 6.4° 988.9 hPa 1.7 m/s 145.5 mm
14:00 11.2° 1006.9 hPa 3.5 m/s 3.7 mm
20:00 10.2° 1007.6 hPa 3.0 m/s 1.9 mm
 07:40     18:32    Daglengte: 10:52 Donderdag 07 Okt
02:00 9.1° 1008.8 hPa 2.0 m/s 0.3 mm
08:00 8.6° 1009.4 hPa 0.8 m/s 0.5 mm
14:00 11.3° 1009.7 hPa 2.7 m/s 1.2 mm
20:00 10.2° 1010.2 hPa 2.5 m/s 1.3 mm
 07:43     18:29    Daglengte: 10:46 Vrijdag 08 Okt
02:00 9.5° 1011.2 hPa 2.1 m/s 1.1 mm
08:00 8.8° 1011.2 hPa 1.4 m/s 0.8 mm
14:00 11.4° 1011.2 hPa 1.9 m/s 1.6 mm
20:00 9.9° 1011.5 hPa 1.7 m/s 1.3 mm
 07:45     18:26    Daglengte: 10:41 Zaterdag 09 Okt
02:00 9.1° 1012.4 hPa 1.1 m/s 0.7 mm
08:00 8.2° 1013.0 hPa 1.2 m/s 0.4 mm
14:00 10.8° 1013.8 hPa 1.7 m/s 0.5 mm
20:00 9.5° 1014.3 hPa 1.6 m/s 0.7 mm
 07:47     18:23    Daglengte: 10:36 Zondag 10 Okt
02:00 8.8° 1014.8 hPa 1.0 m/s 0.4 mm
08:00 8.0° 1014.0 hPa 0.8 m/s 0.7 mm
14:00 10.3° 1013.5 hPa 1.9 m/s 1.3 mm
20:00 9.6° 1013.1 hPa 2.1 m/s 0.3 mm
 07:50     18:21    Daglengte: 10:31 Maandag 11 Okt
02:00 8.6° 1013.3 hPa 1.4 m/s 0.1 mm
08:00 8.0° 1013.5 hPa 1.0 m/s 0.2 mm
14:00 10.5° 1013.9 hPa 1.4 m/s 0.2 mm
20:00 9.3° 1013.7 hPa 1.5 m/s 0.6 mm
FMI Hirlam - 7.5 km EWN WRFDA - 12 km DWD ICON - 7 km GFS - 25 km Basiskaart






























































Updatetijd (Europe/Amsterdam) Resolutie Lengte Stap
FMI Hirlam 19:15, 01:15, 07:15, 13:15 7.5 km 49h 1h
EWN WRFDA 16:00, 22:00, 04:00, 10:00 12 km 73h 1h
DWD ICON 18:00, 00:00, 06:00, 12:00 7 km 75h 1h
GFS 20:00, 02:00, 08:00, 14:00 25 km 237h 3h
30+ mm
25-30 mm
20-25 mm
15-20 mm
10-15 mm
6-10 mm
4-6 mm
2-4 mm
1-2 mm
0.5-1 mm
0.2-0.5 mm
0.1-0.2 mm
30+ mm
25-30 mm
20-25 mm
15-20 mm
10-15 mm
6-10 mm
4-6 mm
2-4 mm
1-2 mm
0.5-1 mm
0.2-0.5 mm
0.1-0.2 mm
Sneeuwval
Natte sneeuw
Hagel
Vorst
30+ mm
25-30 mm
20-25 mm
15-20 mm
10-15 mm
6-10 mm
4-6 mm
2-4 mm
1-2 mm
0.5-1 mm
0.2-0.5 mm
0.1-0.2 mm
Sneeuwval
Natte sneeuw
Hagel
Vorst
Onweer
50 mm
40 mm
30 mm
26 mm
22 mm
18 mm
14 mm
10 mm
9 mm
8 mm
7 mm
6 mm
5 mm
4.5 mm
4 mm
3.5 mm
3 mm
2.5 mm
2 mm
1.5 mm
1 mm
0.8 mm
0.6 mm
0.4 mm
0.2 mm
0.05 mm
35°
30°
25°
20°
15°
10°
-5°
-10°
-15°
-20°
-25°
-30°
-35°
33> m/s
29 m/s
25 m/s
21 m/s
17 m/s
14 m/s
11 m/s
8 m/s
5 m/s
3 m/s
0 m/s
2600 J/kg
2400 J/kg
2200 J/kg
2000 J/kg
1800 J/kg
1600 J/kg
1400 J/kg
1200 J/kg
1000 J/kg
800 J/kg
600 J/kg
400 J/kg
200 J/kg
70 dBZ
65 dBZ
60 dBZ
55 dBZ
50 dBZ
45 dBZ
40 dBZ
35 dBZ
30 dBZ
25 dBZ
20 dBZ
15 dBZ
10 dBZ
5 dBZ
-1 K
-2 K
-3 K
-4 K
-5 K
-6 K
-7 K
-8 K
-9 K
950 m²/s²
900 m²/s²
850 m²/s²
800 m²/s²
750 m²/s²
700 m²/s²
650 m²/s²
600 m²/s²
550 m²/s²
500 m²/s²
450 m²/s²
400 m²/s²
350 m²/s²
300 m²/s²
250 m²/s²
200 m²/s²
150 m²/s²
100 m²/s²
46 m/s
44 m/s
42 m/s
40 m/s
38 m/s
36 m/s
34 m/s
32 m/s
30 m/s
28 m/s
26 m/s
24 m/s
22 m/s
20 m/s
16 m/s
12 m/s
8 m/s
4 m/s
30 m/s
28 m/s
26 m/s
24 m/s
22 m/s
20 m/s
18 m/s
16 m/s
14 m/s
12 m/s
10 m/s
8 m/s
6 m/s
4 m/s
2 m/s
3.0
2.8
2.6
2.4
2.2
2.0
1.8
1.6
1.4
1.2
1.0
0.8
0.6
0.4
0.2
15
14
13
12
11
10
9
8
7
6
5
4
3
2
1
90%
80%
70%
60%
50%
40%
30%
20%
10%
42
40
38
36
34
32
30
28
26
24
22
20
18
16
14
12
90+ cm
80-90 cm
70-80 cm
60-70 cm
50-60 cm
40-50 cm
30-40 cm
20-30 cm
10-20 cm
1-10 cm
Sneeuwval
Natte sneeuw
Regen
>120 mm
115 mm
110 mm
105 mm
100 mm
95 mm
90 mm
85 mm
80 mm
75 mm
70 mm
65 mm
60 mm
55 mm
50 mm
45 mm
45 mm
40 mm
35 mm
30 mm
25 mm
20 mm
15 mm
10 mm
5 mm
0.1 mm
960 hPa
880 hPa
800 hPa
720 hPa
640 hPa
560 hPa
584 gpdm
568 gpdm
552 gpdm
536 gpdm
520 gpdm
504 gpdm
488 gpdm
Extreem zwaar Noodweer Kans op onweer
15% 15% 5% 50% 15%

Dag




Kaart






35°
30°